Weather Service Report


708 
ASUS46 KPQR 020010
RWROR 

OREGON REGIONAL WEATHER ROUNDUP
NATIONAL WEATHER SERVICE PORTLAND OR
400 PM PST SUN FEB 01 2015

NOTE: "FAIR" INDICATES FEW OR NO CLOUDS BELOW 12,000 FEET WITH
NO SIGNIFICANT WEATHER AND/OR OBSTRUCTIONS TO VISIBILITY.

ORZ001>013-020100-
NORTHWEST OREGON

  
CITY           SKY/WX    TMP DP  RH WIND       PRES   REMARKS
ASTORIA        CLOUDY    50  47  89 N9        30.08R                  
6HR MIN TEMP:  44; 6HR MAX TEMP:  54; 6HR PCP:  0.02;                

NEWPORT        CLOUDY    54  52  94 S13       30.14S                  
PORTLAND       PTSUNNY   43  41  93 E6        30.14R                  
6HR MIN TEMP:  40; 6HR MAX TEMP:  44; 6HR PCP:  0.06;                

VANCOUVER WA   CLOUDY    44  40  85 CALM      30.13R                  
6HR MIN TEMP:  40; 6HR MAX TEMP:  45; 6HR PCP:  0.07;                

SCAPPOOSE      CLOUDY    46  42  86 SE3       30.12R                  
6HR MIN TEMP:  41; 6HR MAX TEMP:  46; 6HR PCP:  0.08;                

HILLSBORO      CLOUDY    45  43  93 N5        30.13R                  
6HR MIN TEMP:  41; 6HR MAX TEMP:  45; 6HR PCP:  0.04;                

AURORA         CLOUDY    47  45  93 CALM      30.14R                  
6HR MIN TEMP:  40; 6HR MAX TEMP:  47; 6HR PCP:  0.09;                

MCMINNVILLE    CLOUDY    47  44  90 W3        30.14R FOG              
6HR MIN TEMP:  41; 6HR MAX TEMP:  47; 6HR PCP:  0.04;                

SALEM          PTSUNNY   51  46  83 SW5       30.13R                  
6HR MIN TEMP:  41; 6HR MAX TEMP:  51; 6HR PCP:  0.05;                

CORVALLIS      CLOUDY    52  48  87 S8        30.14R                  
EUGENE         CLOUDY    52  48  86 SE6       30.15R                  
6HR MIN TEMP:  43; 6HR MAX TEMP:  52; 6HR PCP:  0.04;                

$$

ORZ021-028-020100-
SOUTHWEST OREGON

  
CITY           SKY/WX    TMP DP  RH WIND       PRES   REMARKS
NORTH BEND     CLOUDY    55  52  88 S6        30.15R                  
6HR MIN TEMP:  52; 6HR MAX TEMP:  57; 6HR PCP:  0.01;                

BROOKINGS      CLOUDY    58  47  66 CALM      30.15F                  
ROSEBURG       CLOUDY    54  48  80 CALM      30.15R                  
6HR MIN TEMP:  48; 6HR MAX TEMP:  54; 6HR PCP:  0.02;                

SEXTON SUMMIT  CLOUDY    44  35  70 SW9       30.15R                  
6HR MIN TEMP:  41; 6HR MAX TEMP:  46; 6HR PCP:  0.24;                

MEDFORD        CLOUDY    47  39  74 N6        30.18S                  
6HR MIN TEMP:  41; 6HR MAX TEMP:  48; 6HR PCP: TRACE;                

$$

ORZ014>016-041-020100-
COLUMBIA GORGE

  
CITY           SKY/WX    TMP DP  RH WIND       PRES   REMARKS
TROUTDALE      CLOUDY    43  38  82 NE3       30.13R                  
6HR MIN TEMP:  41; 6HR MAX TEMP:  43; 6HR PCP:  0.04;                

THE DALLES     CLOUDY    44  34  67 CALM      30.12S                  
6HR MIN TEMP:  38; 6HR MAX TEMP:  45; 6HR PCP:  0.01;                

$$

ORZ029>031-041-044-049-050-061>064-502-503-505>511-020100-
EASTERN OREGON

  
CITY           SKY/WX    TMP DP  RH WIND       PRES   REMARKS
REDMOND        CLOUDY    46  39  76 E6        30.06S                  
6HR MIN TEMP:  32; 6HR MAX TEMP:  46; 6HR PCP: TRACE;                

BEND           MOSUNNY   50  41  71 SW8       30.06S                  
PRINEVILLE     CLOUDY    45  41  87 E5        30.07F                  
KLAMATH FALLS  LGT RAIN  46  38  73 CALM      30.16S                  
6HR MIN TEMP:  36; 6HR MAX TEMP:  50; 6HR PCP: TRACE;                

LAKEVIEW       CLOUDY    46  34  61 SW5       30.17F                  
HERMISTON      CLOUDY    40  35  83 S5        30.08F                  
6HR MIN TEMP:  37; 6HR MAX TEMP:  40; 6HR PCP:  0.10;                

PENDLETON      CLOUDY    36  34  92 CALM      30.05F                  
6HR MIN TEMP:  34; 6HR MAX TEMP:  36; 6HR PCP:  0.13;                

JOHN DAY       DRIZZLE   42  39  87 SW7       30.07S                  
MEACHAM        LGT RAIN  38  36  92 CALM      30.02F                  
6HR MIN TEMP:  34; 6HR MAX TEMP:  39; 6HR PCP:  0.29;                

LA GRANDE      CLOUDY    37  30  75 S15       30.06S WCI  28          
6HR MIN TEMP:  36; 6HR MAX TEMP:  39; 6HR PCP:  0.10;                

BAKER CITY     LGT SNOW  32  31  96 CALM      30.09R FOG              
6HR MIN TEMP:  32; 6HR MAX TEMP:  37; 6HR PCP: TRACE;                

BURNS          CLOUDY    43  33  68 W6        30.09S                  
6HR MIN TEMP:  34; 6HR MAX TEMP:  43; 6HR PCP: TRACE;                

ROME             N/A     50  34  54 SW12      30.07S                  
6HR MIN TEMP:  38; 6HR MAX TEMP:  53;                                

ONTARIO        LGT RAIN  37  34  89 N6        30.17R WCI  32          
6HR MIN TEMP:  36; 6HR MAX TEMP:  39; 6HR PCP: TRACE;                

$$

Return to Home page


Western Regional Climate Center, wrcc@dri.edu